Regional Weather Roundup
Issued by NWS

Home | Current Version | Previous Version | Graphics & Text | Print | Product List | Glossary On
Versions: 1 2 3 4 5 6 7 8 9 10 11 12 13 14 15 16 17 18 19 20 21 22 23 24 25 26 27 28 29 30 31 32 33 34 35 36 37 38 39 40 41 42 43 44 45 46 47 48 49 50
779
ASUS43 KLOT 251404
RWRIL

ILLINOIS REGIONAL WEATHER ROUNDUP
NATIONAL WEATHER SERVICE CHICAGO/ROMEOVILLE IL
900 AM CDT SUN JUN 25 2017

NOTE: "FAIR" INDICATES FEW OR NO CLOUDS BELOW 12,000 FEET WITH NO
SIGNIFICANT WEATHER AND/OR OBSTRUCTIONS TO VISIBILITY.

* THESE STATIONS ARE NOT UNDER NWS QUALITY CONTROL. THEY ALSO MAY NOT
  REPORT WEATHER SUCH AS PRECIPITATION OR FOG.

ILZ001-002-007-009-015-016-024-251500-
NORTHWEST ILLINOIS

CITY           SKY/WX    TMP DP  RH WIND       PRES   REMARKS
MOLINE         MOSUNNY   65  49  56 W10       30.17S
STERLING*      SUNNY     64  52  64 W13       30.15S
SAVANNA*       SUNNY     62  51  66 W7        30.15S
$$

ILZ003-004-008-010-011-017-018-251500-
NORTH CENTRAL ILLINOIS

CITY           SKY/WX    TMP DP  RH WIND       PRES   REMARKS
ROCKFORD       MOSUNNY   63  51  65 W13       30.14R
FREEPORT*      SUNNY     60  50  70 W13       30.15R
ROCHELLE*      SUNNY     61  51  69 W13       30.14S
DE KALB*       SUNNY     61  51  70 W12G18    30.13S
PERU*          SUNNY     63  48  58 W12       30.16S
$$

ILZ005-006-012>014-019>023-251500-
NORTHEAST ILLINOIS

CITY           SKY/WX    TMP DP  RH WIND       PRES   REMARKS
CHICAGO-OHARE  MOSUNNY   63  49  60 W12       30.10S
CHICAGO-MIDWAY MOSUNNY   65  48  54 W15       30.11R
AURORA         SUNNY     64  50  60 W15       30.13S
LANSING*       SUNNY     64  47  53 W14G21    30.12S
JOLIET*        SUNNY     65  49  56 W12G17    30.13S
WAUKEGAN       SUNNY     62  51  67 VRB5      30.08R
DUPAGE AIRPORT SUNNY     62  51  67 W15       30.11R
WHEELING       SUNNY     63  50  62 W8        30.11S
MORRIS*        SUNNY     65  48  53 NW17G24   30.13R
ROMEOVILLE*    SUNNY     64  46  51 W18       30.13R
NORTHERLY ISL    N/A     63  45  51 NW8         N/A
$$

LMZ740>746-251500-
SOUTHERN LAKE MICHIGAN

STATION/POSITION SKY/WX   TEMP    WIND        PRES    VSBY  WAVE
                          AIR SEA DIR/SP/G                  HT/PER
                          (F)     (DEG/KT/KT) (MB)    (MI)  (FT/S)
SOUTHERN BUOY              58 61  300/ 17/ 19 1017.2          4/ 5
WILMETTE HARBOR            61 64  260/ 12/ 16   N/A           1/ 2
HARRISON CRIB              61     280/ 15/ 16   N/A
BURNHAM HARBOR             64                   N/A
CALUMET HARBOR             63     260/  5/  9 1019.0R
BURNS HARBOR               62     260/ 14/ 17 1020.0R
MICHIGAN CITY              60     250/ 20/ 21   N/A
MICHIGAN CITY 6N           61 66  270/ 16/ 19   N/A           4/ 5
ST. JOSEPH                 62 69  280/ 16/ 19 1019.0R         5/ 5
$$

ILZ025>027-034>036-040-047-049-050-058-095>099-251500-
WEST-CENTRAL ILLINOIS

CITY           SKY/WX    TMP DP  RH WIND       PRES   REMARKS
QUINCY         SUNNY     67  49  52 NW10      30.21R
GALESBURG*     SUNNY     63  49  59 W10       30.20S
MACOMB*        SUNNY     65  49  56 NW12      30.22S
JACKSONVILLE*  SUNNY     68  51  54 W8        30.20R
PITTSFIELD*    SUNNY     68  54  61 SW7       30.23R
$$

ILZ028>032-037-038-041>044-048-051>054-059>061-251500-
CENTRAL ILLINOIS

CITY           SKY/WX    TMP DP  RH WIND       PRES   REMARKS
PONTIAC        SUNNY     66  46  48 W20       30.17R
BLOOMINGTON    SUNNY     66  48  52 NW13      30.18S
DECATUR        SUNNY     67  51  56 W7        30.18R
PEORIA         SUNNY     66  49  54 W9        30.18R
LACON*         SUNNY     65  48  53 W8        30.17S
LINCOLN*       SUNNY     69  51  54 CALM      30.18S
SPRINGFIELD    SUNNY     70  53  54 W6        30.19S
TAYLORVILLE    SUNNY     67  53  61 W3        30.20R
$$

ILZ033-039-045-046-055>057-062-063-251500-
EAST-CENTRAL ILLINOIS

CITY           SKY/WX    TMP DP  RH WIND       PRES   REMARKS
CHAMPAIGN      SUNNY     68  47  46 NW9       30.17S
RANTOUL*       SUNNY     68  49  51 NW8G16    30.16S
MATTOON        SUNNY     68  55  63 W8        30.17S
PARIS*         SUNNY     65  53  65 W3        30.18S
$$

ILZ079-100>102-251500-
SOUTHWEST ILLINOIS

CITY           SKY/WX    TMP DP  RH WIND       PRES   REMARKS
ALTON          MOSUNNY   66  55  68 W12       30.22R
BELLEVILLE     SUNNY     72  51  46 W12       30.22R
CAHOKIA*       SUNNY     74  47  38 W8        30.21S
SPARTA*        SUNNY     72  51  47 W9        30.23S
$$

ILZ064>066-069>071-074>076-080>082-084>086-088>090-092>094-251500-
SOUTH-CENTRAL ILLINOIS

CITY           SKY/WX    TMP DP  RH WIND       PRES   REMARKS
CARBONDALE     SUNNY     72  55  55 VRB7      30.23R
CAIRO*         SUNNY     71  60  67 CALM      30.24S
EFFINGHAM*     SUNNY     69  54  57 W9        30.21S
MARION         SUNNY     73  54  49 W9        30.23S
MT. VERNON     SUNNY     73  53  49 W12       30.21S
SALEM*         SUNNY     71  51  49 NW10G16   30.21S
METROPOLIS*    SUNNY     72  58  62 W3        30.24S
$$

ILZ067-068-072-073-078-083-087-091-251500-
SOUTHEAST ILLINOIS

CITY           SKY/WX    TMP DP  RH WIND       PRES   REMARKS
LAWRENCEVILLE  SUNNY     71  53  52 W14       30.20R
FLORA*         SUNNY     73  51  47 W13       30.20F
FAIRFIELD*     SUNNY     72  54  52 W5        30.19F
HARRISBURG*    SUNNY     72  58  60 W9        30.23S
ROBINSON*      SUNNY     67  52  58 W13       30.20S
CARMI*         SUNNY     73  53  48 W14       30.21S
$$

ABBREVIATIONS USED IN REMARKS
   TC - TEMPERATURE IN CELSIUS
  WCI - WIND CHILL INDEX
   HX - HEAT INDEX
  VSB - VISIBILITY
$$





USA.gov is the U.S. government's official web portal to all federal, state and local government web resources and services.